Location: �clusier
(49.9361°N, 2.7869°E)
Time: 03:26:30
(UTC+00:00)

Cosmos 1943 Rocket - Pass Details

Date: 31 October 2021
Orbit: 811 x 844 km, 71.0° (Epoch: 07 December)

Event Time Altitude Azimuth Distance (km) Brightness Sun altitude
Rises 19:54:02 0° 331° (NNW) 3,415 6.0 -33.4°
Reaches altitude 10° 19:56:30 10° 332° (NNW) 2,474 5.1 -33.8°
Enters shadow 19:59:38 34° 335° (NNW) 1,355 3.5 -34.3°
